Showing default

UKUBE 1, 40074

Orbit data source: Space-Track

UKUBE 1, 40074 is a payload satellite owned by UKSA (UK) in SSO that was launched on Tue, 08 Jul 2014 UTC via a SOYUZ-2-1B launch vehicle from the Tyuratam Missile And Space Complex (TTMTR). Payload-class satellites include a variety of spacecraft equipped with specific instruments for various scientific and technological missions. These include communications satellites like Starlink; space stations such as the ISS; scientific satellites like the Hubble; Earth observation satellites from companies like Planet Labs, Umbra, and HawkEye 360; GPS; miniature CubeSats for education and research; and military/defense satellites.

Loading next visibility...
Identifier
40074, 2014-037F
Orbit
SSO
Country
Flag of UKUK
Related business
Manufacturer
ClydeSpace
Mission
Operational Commercial Technology
Bus & Motor
CUBESAT 3U, Unknown motor
Mass
4 kg wet, 4 kg dry
Launch date (UTC)
2014-07-08 (12 years ago)
Launch vehicle
SOYUZ-2-1B
Launch site
Tyuratam Missile And Space Complex (TTMTR)
Object type
Payload
Rocket body
Debris
Shape & HBR
Box + 1 Pan, 0.2 m
Radar Cross Section
0.038 m², Medium (>0.1 m² and < 1m²)

Expand to show TLE details & history
Last TLE update: 1 day ago

TLE from 1 day ago
0 UKUBE 1
1 40074U 14037F   26102.96011669  .00005053  00000-0  29435-3 0  9998
2 40074  98.4246  99.4374 0002700  64.0526 296.0980 15.12540078638697
Epoch: 2026-04-12T23:02Z
TLE epoch observation values (Epoch: 2026-04-12T23:02:34.082Z)
Latitude
0.00001°
Longitude
-87.36219°
Altitude
530.686 km
Speed
7.598 km/s
True Right ascension
06h 37m 44s
True Declination
0° 00' 00"
Sunlit
Object was in daylight at epoch
Visualization orbit readout
Latitude
Unknown
Longitude
Unknown
Altitude
Unknown
Speed
Unknown
Apparent Right ascension
Unknown
Apparent Declination
Unknown
Sunlit
N/A
Visualization observer readout
Local Sidereal Time
08:45:17
Azimuth
Unknown
Elevation
Unknown
Doppler factor
Unknown
Orbital elements
Apogee altitude
527.343 km
Perigee altitude
523.615 km
Semi-major axis
6,903.616 km
Eccentricity
0.00027
Inclination
98.4246°
RAAN
99.4374°
Arg. of periapsis
64.0526°
True anomaly
296.07021°
Mean anomaly
296.098°
Eccentric anomaly
296.08411°
Mean motion
3.7838 °/min
Orbital period
95.14 mins
BSTAR
0.00029435
Loading maneuver chart data...
Computing Atmospheric mass density...
Loading historical data...
Loading historical data...
Loading historical data...
Loading historical data...
Loading historical data...
Loading historical data...
Loading historical data...

Documentation

Showing up to 5 results
|